User: anonymous   Login
Location: Oshawa
(43.9000°N, 78.8670°W)
Time: 10:15:09
(UTC-04:00)
Language:

Cosmos 2333 Rocket - Orbit

View from above orbital plane
View from above orbital plane
View from above satellite
View from above satellite

Ground track
Ground track

The orbit data is extracted from the following two-line orbital elements,

1 24298U 96051B   16176.86910174  .00000065  00000-0  61367-4 0  9991
2 24298  70.8373  95.2391 0015204 341.9874  18.0706 14.12407390 21367
Epoch (UTC): 24 June 2016 20:51:30
Eccentricity: 0.0015204
inclination: 70.8373°
perigee height: 840 km
apogee height: 862 km
right ascension of ascending node: 95.2391°
argument of perigee: 341.9874°
revolutions per day: 14.12407390
mean anomaly at epoch: 18.0706°
orbit number at epoch: 2136

The dashed part of the orbit path shows where the satellite is in the earth's shadow,  

DLR